ONEWEB-0035, 45143

Orbit data source: Space-Track

ONEWEB-0035, 45143 is a payload satellite owned by One Web (UK) in LEO that was launched on Thu, 06 Feb 2020 UTC via a SOYUZ-2-1B launch vehicle from the Tyuratam Missile And Space Complex (TTMTR). Payloads include a variety of satellites, spacecraft, and rockets equipped with specific instruments for various scientific and technological missions. These include communications satellites like Starlink; space stations such as the ISS; scientific satellites like the Hubble; Earth observation satellites from companies like Planet Labs, Umbra, and HawkEye 360; GPS; miniature CubeSats for education and research; and military/defense satellites.

Loading next visibility...
ONEWEB-0035 details
Identifier
45143, 2020-008N
Orbit
LEO
Last TLE update9 hours ago
Origin
Flag of UKOne Web (UK)
ManufacturerOne Web
MissionOperational Commercial Communications
Bus & MotorARROW, Unknown motor
Mass148 kg wet, ~140 kg dry
Launch date (UTC)
2020-02-06 (5 years ago)
Launch vehicle
SOYUZ-2-1B
Launch site
Tyuratam Missile And Space Complex (TTMTR)
Object type
Payload
Rocket body
Debris
Shape & HBRTrap Box + 2 Pan, 5 m
Radar Cross Section2.957 m², Large (>1 m²)

Expand to show TLE details & history

TLE from 9 hours ago
0 ONEWEB-0035
1 45143U 20008N   24339.00213638  .00000707  00000-0  19903-2 0  9999
2 45143  87.8889 147.8542 0001362  89.4267 270.7016 13.10374200235460
Epoch: 2024-12-04T00:03Z
Definitive object data (Epoch: 2024-12-04T00:03:04.583Z)
Latitude-0.00005°
Longitude73.78156°
Altitude1,224.587 km
Speed7.242 km/s
True Right ascension09h 51m 25s
True Declination0° 00' 00"
Sunlit
Object was in daylight at TLE epoch
Visualization TLE readout
Latitude39.71203°
Longitude75.44975°
Altitude1,226.67 km
Speed7.245 km/s
Apparent Right ascension13h 43m 13s
Apparent Declination11° 30' 36"
Sunlit
Object is in daylight
Visualization observer readout
Local Sidereal Time07:19:12
Azimuth77.344° E
Elevation2.832°
Doppler factor1
Orbital elements
Apogee altitude1,219.866 km
Perigee altitude1,217.797 km
Semi-major axis7,596.969 km
Eccentricity0.0001362
Inclination87.8889°
RAAN147.8542°
Arg. of periapsis89.4267°
True anomaly270.68599°
Mean anomaly270.7016°
Eccentric anomaly270.6938°
Mean motion3.2778 °/min
BSTAR0.0019903
Orbital period109.83 mins
Loading maneuver chart data...
Loading historical data...
Loading historical data...
Loading historical data...
Loading historical data...
Loading historical data...
Loading historical data...
Loading historical data...

ONEWEB-0035 Visibility forecast

Observer location: undefined°, undefined

Span
Click to sort rows by Start time (UTC) header in descending order
Start Az.
Max El. time (UTC)
Max El. Az.
Max El.
End time (UTC)
End Az.
13 mins2024-12-04 11:08:55.782Z147.546° SSE2024-12-04 11:14:55.782Z86.926° E33.97°2024-12-04 11:21:55.782Z14.387° NNE
11 mins2024-12-04 12:59:55.782Z222.299° SW2024-12-04 13:04:55.782Z275.04° WNW29.363°2024-12-04 13:10:55.782Z339.153° N
11 mins2024-12-04 22:39:55.782Z24.489° NE2024-12-04 22:44:55.782Z79.68° E29.388°2024-12-04 22:50:55.782Z141.018° SSE
11 mins2024-12-05 00:29:55.782Z339.304° N2024-12-05 00:34:55.782Z279.771° WNW34.077°2024-12-05 00:40:55.782Z213.597° SW
|